EN

Hourly Weather Dzialki

Today, 31 October, Saturday

Time Temperature Precipitation Wind Pressure Humidity
00:00 +9°C° 0 mm 1 mps 754 mmHg 83%
01:00 +8°C° 0 mm 1 mps 754 mmHg 84%
02:00 +8°C° 0 mm 1 mps 754 mmHg 85%
03:00 +7°C° 0 mm 1 mps 755 mmHg 86%
04:00 +7°C° 0 mm 1 mps 755 mmHg 87%
05:00 +7°C° 0 mm 1 mps 755 mmHg 88%
06:00 +7°C° 0 mm 1 mps 756 mmHg 89%
07:00 +6°C° 0 mm 1 mps 756 mmHg 90%
08:00 +8°C° 0 mm 1 mps 757 mmHg 84%
09:00 +9°C° 0 mm 1 mps 757 mmHg 78%
10:00 +10°C° 0 mm 1 mps 757 mmHg 72%
11:00 +11°C° 0 mm 1 mps 757 mmHg 68%
12:00 +11°C° 0 mm 1 mps 757 mmHg 65%
13:00 +12°C° 0 mm 1 mps 757 mmHg 61%
14:00 +11°C° 0 mm 1 mps 757 mmHg 65%
15:00 +11°C° 0 mm 1 mps 758 mmHg 69%
16:00 +10°C° 0 mm 1 mps 758 mmHg 72%
17:00 +10°C° 0 mm 1 mps 758 mmHg 75%
18:00 +8°C° 0 mm 0 mps 758 mmHg 78%
19:00 +8°C° 0 mm 0 mps 758 mmHg 80%
20:00 +8°C° 0 mm 1 mps 758 mmHg 82%
21:00 +8°C° 0 mm 1 mps 758 mmHg 83%
22:00 +8°C° 0 mm 1 mps 758 mmHg 84%
23:00 +7°C° 0 mm 1 mps 758 mmHg 85%

Tomorrow, 1 November, Sunday

Time Temperature Precipitation Wind Pressure Humidity
00:00 +6°C° 0 mm 2 mps 758 mmHg 86%
01:00 +6°C° 0 mm 2 mps 758 mmHg 86%
02:00 +6°C° 0 mm 2 mps 758 mmHg 87%
03:00 +5°C° 0 mm 2 mps 757 mmHg 87%
04:00 +5°C° 0 mm 2 mps 757 mmHg 88%
05:00 +5°C° 0 mm 2 mps 757 mmHg 88%
06:00 +5°C° 0 mm 2 mps 757 mmHg 87%
07:00 +4°C° 0 mm 3 mps 757 mmHg 87%
08:00 +5°C° 0 mm 3 mps 756 mmHg 81%
09:00 +8°C° 0 mm 3 mps 756 mmHg 75%
10:00 +8°C° 0 mm 4 mps 756 mmHg 68%
11:00 +10°C° 0 mm 4 mps 755 mmHg 65%
12:00 +11°C° 0 mm 4 mps 755 mmHg 61%
13:00 +12°C° 0 mm 4 mps 754 mmHg 57%
14:00 +11°C° 0 mm 4 mps 754 mmHg 62%
15:00 +11°C° 0 mm 3 mps 753 mmHg 66%
16:00 +10°C° 0 mm 3 mps 753 mmHg 71%
17:00 +10°C° 0 mm 3 mps 752 mmHg 72%
18:00 +10°C° 0 mm 4 mps 752 mmHg 74%
19:00 +10°C° 0 mm 4 mps 752 mmHg 76%
20:00 +10°C° 0.1 mm 4 mps 752 mmHg 80%
21:00 +10°C° 0.1 mm 3 mps 752 mmHg 85%
22:00 +10°C° 0.1 mm 3 mps 751 mmHg 89%
23:00 +10°C° 0.2 mm 3 mps 751 mmHg 91%

Day after tomorrow, 2 November, Monday

Time Temperature Precipitation Wind Pressure Humidity
00:00 +10°C° 0.2 mm 3 mps 751 mmHg 92%
01:00 +10°C° 0.2 mm 3 mps 751 mmHg 94%
02:00 +10°C° 0.4 mm 3 mps 751 mmHg 94%
03:00 +10°C° 0.4 mm 3 mps 751 mmHg 94%
04:00 +10°C° 0.4 mm 3 mps 750 mmHg 94%
05:00 +11°C° 0.2 mm 3 mps 751 mmHg 93%
06:00 +11°C° 0.2 mm 4 mps 751 mmHg 93%
07:00 +11°C° 0.2 mm 4 mps 751 mmHg 93%
08:00 +12°C° 0 mm 4 mps 751 mmHg 91%
09:00 +12°C° 0 mm 4 mps 751 mmHg 89%
10:00 +13°C° 0 mm 4 mps 751 mmHg 87%
11:00 +13°C° 0 mm 4 mps 751 mmHg 85%
12:00 +14°C° 0 mm 4 mps 752 mmHg 82%
13:00 +14°C° 0 mm 4 mps 752 mmHg 79%
14:00 +13°C° 0 mm 3 mps 752 mmHg 83%
15:00 +14°C° 0 mm 2 mps 752 mmHg 86%
16:00 +14°C° 0 mm 2 mps 752 mmHg 90%
17:00 +14°C° 0.1 mm 2 mps 752 mmHg 92%
18:00 +14°C° 0.1 mm 2 mps 752 mmHg 93%
19:00 +13°C° 0.1 mm 3 mps 752 mmHg 95%
20:00 +13°C° 0 mm 3 mps 752 mmHg 95%
21:00 +13°C° 0 mm 3 mps 752 mmHg 95%
22:00 +13°C° 0 mm 3 mps 752 mmHg 95%
23:00 +13°C° 0 mm 3 mps 752 mmHg 94%

3 November, Tuesday

Time Temperature Precipitation Wind Pressure Humidity
00:00 +13°C° 0 mm 3 mps 752 mmHg 93%
01:00 +13°C° 0 mm 3 mps 752 mmHg 93%
02:00 +13°C° 0 mm 3 mps 752 mmHg 93%
03:00 +13°C° 0 mm 3 mps 752 mmHg 92%
04:00 +13°C° 0 mm 3 mps 752 mmHg 92%
05:00 +13°C° 0 mm 3 mps 752 mmHg 92%
06:00 +13°C° 0 mm 3 mps 753 mmHg 92%
07:00 +13°C° 0 mm 3 mps 753 mmHg 91%
08:00 +14°C° 0 mm 3 mps 753 mmHg 88%
09:00 +15°C° 0 mm 4 mps 754 mmHg 84%
10:00 +17°C° 0 mm 4 mps 754 mmHg 81%
11:00 +16°C° 0 mm 5 mps 755 mmHg 80%
12:00 +15°C° 0 mm 5 mps 755 mmHg 79%
13:00 +14°C° 0 mm 5 mps 755 mmHg 78%
14:00 +14°C° 0 mm 5 mps 756 mmHg 75%
15:00 +13°C° 0 mm 4 mps 756 mmHg 73%
16:00 +12°C° 0 mm 4 mps 757 mmHg 70%
17:00 +12°C° 0 mm 3 mps 757 mmHg 71%
18:00 +11°C° 0 mm 3 mps 758 mmHg 72%
19:00 +12°C° 0 mm 2 mps 759 mmHg 73%
20:00 +12°C° 0 mm 2 mps 759 mmHg 74%
21:00 +10°C° 0 mm 2 mps 759 mmHg 75%
22:00 +10°C° 0 mm 2 mps 760 mmHg 76%
23:00 +10°C° 0 mm 2 mps 760 mmHg 75%

4 November, Wednesday

Time Temperature Precipitation Wind Pressure Humidity
00:00 +9°C° 0 mm 2 mps 760 mmHg 75%
01:00 +9°C° 0 mm 2 mps 760 mmHg 75%
02:00 +9°C° 0 mm 2 mps 760 mmHg 75%
03:00 +9°C° 0 mm 2 mps 760 mmHg 75%
04:00 +9°C° 0 mm 2 mps 760 mmHg 75%
05:00 +9°C° 0 mm 2 mps 760 mmHg 76%
06:00 +9°C° 0 mm 2 mps 761 mmHg 77%
07:00 +9°C° 0 mm 2 mps 761 mmHg 78%
08:00 +9°C° 0 mm 3 mps 761 mmHg 74%
09:00 +10°C° 0 mm 3 mps 761 mmHg 70%
10:00 +11°C° 0 mm 4 mps 762 mmHg 66%
11:00 +11°C° 0 mm 3 mps 762 mmHg 62%
12:00 +11°C° 0 mm 3 mps 762 mmHg 58%
13:00 +12°C° 0 mm 3 mps 762 mmHg 54%
14:00 +12°C° 0 mm 2 mps 762 mmHg 58%
15:00 +10°C° 0 mm 2 mps 762 mmHg 61%
16:00 +10°C° 0 mm 1 mps 762 mmHg 65%
17:00 +10°C° 0 mm 1 mps 762 mmHg 68%
18:00 +9°C° 0 mm 1 mps 763 mmHg 71%
19:00 +9°C° 0 mm 1 mps 763 mmHg 74%
20:00 +8°C° 0 mm 1 mps 763 mmHg 75%
21:00 +8°C° 0 mm 1 mps 763 mmHg 76%
22:00 +8°C° 0 mm 1 mps 764 mmHg 77%
23:00 +8°C° 0 mm 1 mps 764 mmHg 78%

5 November, Thursday

Time Temperature Precipitation Wind Pressure Humidity
00:00 +7°C° 0 mm 1 mps 764 mmHg 79%
01:00 +7°C° 0 mm 1 mps 764 mmHg 80%
02:00 +7°C° 0 mm 1 mps 764 mmHg 81%
03:00 +7°C° 0 mm 1 mps 764 mmHg 82%
04:00 +6°C° 0 mm 1 mps 764 mmHg 83%
05:00 +6°C° 0 mm 1 mps 765 mmHg 83%
06:00 +6°C° 0 mm 1 mps 765 mmHg 83%
07:00 +6°C° 0 mm 1 mps 765 mmHg 82%
08:00 +7°C° 0 mm 1 mps 765 mmHg 78%
09:00 +8°C° 0 mm 1 mps 765 mmHg 73%
10:00 +9°C° 0 mm 1 mps 766 mmHg 69%
11:00 +10°C° 0 mm 1 mps 766 mmHg 66%
12:00 +11°C° 0 mm 1 mps 766 mmHg 63%
13:00 +11°C° 0 mm 1 mps 766 mmHg 60%
14:00 +10°C° 0 mm 1 mps 766 mmHg 63%
15:00 +9°C° 0 mm 2 mps 766 mmHg 66%
16:00 +8°C° 0 mm 2 mps 766 mmHg 69%
17:00 +7°C° 0 mm 2 mps 766 mmHg 72%
18:00 +7°C° 0 mm 2 mps 766 mmHg 74%
19:00 +6°C° 0 mm 2 mps 766 mmHg 77%
20:00 +6°C° 0 mm 2 mps 766 mmHg 79%
21:00 +5°C° 0 mm 2 mps 767 mmHg 81%
22:00 +5°C° 0 mm 2 mps 767 mmHg 83%
23:00 +4°C° 0 mm 2 mps 767 mmHg 85%
Show more